Warner Robins, GA

3:50 PM EDT on April 30, 2017 (GMT -0400)
Robins Air Force Base

Weather History for KWRB - May, 2013

Change the Weather History Date:

Thursday, May 16, 2013

  Actual Average Record
Temperature  
Mean Temperature 75 °F -  
Max Temperature 85 °F 82 °F 89 °F (2001)
Min Temperature 64 °F 58 °F 48 °F (1997)
Cooling Degree Days 10    
Growing Degree Days 25 (Base 50)    
Moisture  
Dew Point 55 °F    
Average Humidity 57    
Maximum Humidity 85    
Minimum Humidity 26    
Precipitation  
Precipitation 0.00 in - - ()
Sea Level Pressure  
Sea Level Pressure 30.05 in    
Wind  
Wind Speed 5 mph (SSW)    
Max Wind Speed 12 mph    
Max Gust Speed -    
Visibility 10 miles    
Events Rain    
Averages and records for this station are not official NWS values.
T = Trace of Precipitation, MM = Missing Value Source: NWS Daily Summary

Daily Weather History Graph

Daily Weather History Graph

Search for Another Location

Airport or City:

Trip Planner

Search our weather history database for the weather conditions in past years. The results will help you decide how hot, cold, wet, or windy it might be!

Date:

Astronomy

May. 16, 2013 Rise Set
Actual Time 6:34 AM EDT 8:26 PM EDT
Civil Twilight 6:07 AM EDT 8:54 PM EDT
Nautical Twilight 5:34 AM EDT 9:27 PM EDT
Astronomical Twilight 5:00 AM EDT 10:02 PM EDT
Moon 12:01 PM EDT (5/16) 12:52 AM EDT (5/16)
Length of Visible Light 14h 46m
Length of Day
13h 52m
Waxing Crescent, 35% of the Moon is Illuminated
May 16
Waxing Crescent
May 18
First Quarter
May 25
Full
May 31
Last Quarter
Jun 8
New

Hourly Weather History & Observations

Time (EDT) Temp. Heat Index Dew Point Humidity Pressure Visibility Wind Dir Wind Speed Gust Speed Precip Events Conditions
12:58 AM 72.3 °F - 57.7 °F 60% 30.05 in 10.0 mi SW 5.8 mph - N/A   Clear
1:58 AM 64.9 °F - 60.3 °F 85% 30.04 in 10.0 mi East 1.2 mph - N/A   Clear
2:58 AM 68.0 °F - 57.2 °F 68% 30.03 in 10.0 mi SW 6.9 mph - N/A   Clear
3:58 AM 69.1 °F - 57.0 °F 65% 30.04 in 10.0 mi WSW 10.4 mph - N/A   Mostly Cloudy
4:58 AM 69.3 °F - 55.6 °F 62% 30.04 in 10.0 mi West 11.5 mph - N/A   Mostly Cloudy
5:58 AM 69.4 °F - 54.5 °F 59% 30.05 in 10.0 mi West 8.1 mph - N/A   Mostly Cloudy
6:58 AM 68.5 °F - 54.1 °F 60% 30.07 in 10.0 mi WNW 3.5 mph - N/A   Scattered Clouds
7:58 AM 69.6 °F - 54.7 °F 59% 30.10 in 10.0 mi WNW 5.8 mph - N/A   Mostly Cloudy
8:58 AM 67.8 °F - 59.4 °F 74% 30.10 in 10.0 mi Calm Calm - N/A   Partly Cloudy
9:55 AM 69.8 °F - 59.0 °F 68% 30.10 in 10.0 mi SE 3.5 mph - N/A   Clear
9:56 AM 69.8 °F - 59.0 °F 68% 30.10 in 10.0 mi SE 3.5 mph - N/A   Clear
10:56 AM 71.6 °F - 59.0 °F 64% 30.08 in 10.0 mi SE 3.5 mph - N/A   Clear
11:56 AM 75.2 °F - 55.4 °F 50% 30.10 in 10.0 mi Calm Calm - N/A   Scattered Clouds
12:56 PM 80.6 °F 80.3 °F 53.6 °F 39% 30.08 in 10.0 mi SSW 6.9 mph - N/A   Scattered Clouds
1:56 PM 82.4 °F - 46.4 °F 28% 30.06 in 10.0 mi SW 9.2 mph - N/A   Clear
2:56 PM 84.2 °F - 48.2 °F 29% 30.04 in 10.0 mi SSW 9.2 mph - N/A   Clear
3:56 PM 86.0 °F - 50.0 °F 29% 30.03 in 10.0 mi South 9.2 mph - N/A   Clear
4:56 PM 86.0 °F - 50.0 °F 29% 30.02 in 10.0 mi SSW 9.2 mph - N/A   Clear
5:58 PM 84.4 °F - 46.2 °F 26% 30.01 in 10.0 mi WSW 5.8 mph - N/A   Clear
6:58 PM 82.8 °F - 49.5 °F 31% 30.01 in 10.0 mi SW 6.9 mph - N/A   Clear
7:58 PM 81.1 °F - 49.8 °F 33% 30.02 in 10.0 mi West 6.9 mph - N/A   Clear
8:36 PM 71.6 °F - 60.8 °F 69% 30.02 in 10.0 mi ESE 2.3 mph - N/A Rain Light Rain
8:47 PM 71.6 °F - 60.8 °F 69% 30.02 in 10.0 mi Calm Calm - N/A   Clear
8:58 PM 70.9 °F - 59.7 °F 68% 30.02 in 10.0 mi ESE 1.2 mph - 0.00 in   Clear
9:58 PM 67.6 °F - 58.8 °F 73% 30.03 in 10.0 mi Calm Calm - N/A   Clear
10:58 PM 65.5 °F - 59.0 °F 80% 30.05 in 10.0 mi ESE 1.2 mph - N/A   Clear
11:58 PM 66.0 °F - 60.3 °F 82% 30.05 in 10.0 mi ESE 1.2 mph - N/A   Overcast